User: anonymous   Login
Location: Unspecified
(0.0000°N, 0.0000°E)
Time: 00:41:46
(UTC+00:00)
Language:

N. Korean satellite - Orbit

View from above orbital plane
View from above orbital plane
View from above satellite
View from above satellite

Ground track
Ground track

The orbit data is extracted from the following two-line orbital elements,

1 39026U 12072A   19112.54892021  .00001346  00000-0  51552-4 0  9993
2 39026  97.2119 117.5536 0036721 306.1313  53.6530 15.27662758352871
Epoch (UTC): 22 April 2019 13:10:26
Eccentricity: 0.0036721
inclination: 97.2119°
perigee height: 457 km
apogee height: 508 km
right ascension of ascending node: 117.5536°
argument of perigee: 306.1313°
revolutions per day: 15.27662758
mean anomaly at epoch: 53.6530°
orbit number at epoch: 35287

The dashed part of the orbit path shows where the satellite is in the earth's shadow,  

DLR